| time (UTC) | temp F | wind direction | speed MPH | gust MPH | rain 1hr in | rain 24hr in | rain mn in | humidity % | barometer mb |
| 20260831011606 | 70 | 0 | 0.0 | 0.0 | 0.00 | 0.00 | 0.00 | 46 | 1022.0 |
| 20260831010101 | 70 | 0 | 2.0 | 7.0 | 0.00 | 0.00 | 0.00 | 44 | 1022.1 |
| 20260831004608 | 71 | 170 | 2.0 | 10.0 | 0.00 | 0.00 | 0.00 | 43 | 1022.1 |
| 20260831003107 | 72 | 31 | 2.0 | 7.0 | 0.00 | 0.00 | 0.00 | 44 | 1022.2 |
| 20260831001604 | 73 | 142 | 0.0 | 6.0 | 0.00 | 0.00 | 0.00 | 40 | 1022.2 |
| 20260830234605 | 75 | 161 | 2.0 | 10.0 | 0.00 | 0.00 | 0.00 | 44 | 1022.3 |
| 20260830233057 | 76 | 248 | 2.0 | 7.0 | 0.00 | 0.00 | 0.00 | 41 | 1022.4 |
| 20260830231604 | 75 | 176 | 3.0 | 12.0 | 0.00 | 0.00 | 0.00 | 50 | 1022.4 |
| 20260830230103 | 75 | 148 | 6.0 | 12.0 | 0.00 | 0.00 | 0.00 | 48 | 1022.4 |
| 20260830224602 | 76 | 162 | 5.0 | 13.0 | 0.00 | 0.00 | 0.00 | 49 | 1022.5 |
| 20260830223104 | 75 | 105 | 6.0 | 13.0 | 0.00 | 0.00 | 0.00 | 45 | 1022.7 |
| 20260830221605 | 76 | 116 | 5.0 | 15.0 | 0.00 | 0.00 | 0.00 | 43 | 1022.9 |
| 20260830220103 | 78 | 169 | 6.0 | 15.0 | 0.00 | 0.00 | 0.00 | 47 | 1023.0 |
| 20260830214603 | 78 | 130 | 2.0 | 14.0 | 0.00 | 0.00 | 0.00 | 44 | 1023.0 |
| 20260830213103 | 77 | 189 | 5.0 | 14.0 | 0.00 | 0.00 | 0.00 | 48 | 1023.1 |
| 20260830211601 | 78 | 142 | 5.0 | 12.0 | 0.00 | 0.00 | 0.00 | 45 | 1023.4 |
| 20260830210109 | 79 | 144 | 4.0 | 11.0 | 0.00 | 0.00 | 0.00 | 44 | 1023.6 |
| 20260830204606 | 79 | 94 | 2.0 | 15.0 | 0.00 | 0.00 | 0.00 | 40 | 1023.7 |
| 20260830203122 | 78 | 178 | 5.0 | 11.0 | 0.00 | 0.00 | 0.00 | 42 | 1024.0 |
| 20260830201618 | 78 | 128 | 4.0 | 12.0 | 0.00 | 0.00 | 0.00 | 41 | 1023.9 |
| 20260830200103 | 78 | 173 | 5.0 | 11.0 | 0.00 | 0.00 | 0.00 | 39 | 1024.0 |
| 20260830194609 | 79 | 133 | 6.0 | 11.0 | 0.00 | 0.00 | 0.00 | 39 | 1024.1 |
| 20260830193106 | 80 | 134 | 3.0 | 14.0 | 0.00 | 0.00 | 0.00 | 37 | 1024.0 |
| 20260830191606 | 81 | 154 | 4.0 | 13.0 | 0.00 | 0.00 | 0.00 | 33 | 1024.0 |
| 20260830184601 | 82 | 125 | 2.0 | 9.0 | 0.00 | 0.00 | 0.00 | 32 | 1024.1 |
| 20260830183109 | 82 | 98 | 0.0 | 7.0 | 0.00 | 0.00 | 0.00 | 30 | 1024.0 |
| 20260830181628 | 82 | 350 | 1.0 | 6.0 | 0.00 | 0.00 | 0.00 | 31 | 1024.0 |
| 20260830180109 | 81 | 5 | 1.0 | 7.0 | 0.00 | 0.00 | 0.00 | 31 | 1024.0 |
| 20260830174608 | 81 | 0 | 1.0 | 6.0 | 0.00 | 0.00 | 0.00 | 31 | 1023.8 |
| 20260830173112 | 79 | 317 | 2.0 | 7.0 | 0.00 | 0.00 | 0.00 | 30 | 1023.8 |
| 20260830171555 | 79 | 22 | 1.0 | 8.0 | 0.00 | 0.00 | 0.00 | 29 | 1023.6 |
| 20260830164620 | 78 | 298 | 1.0 | 7.0 | 0.00 | 0.00 | 0.00 | 28 | 1023.4 |
| 20260830163110 | 78 | 315 | 0.0 | 6.0 | 0.00 | 0.00 | 0.00 | 30 | 1023.4 |
| 20260830161601 | 77 | 298 | 2.0 | 8.0 | 0.00 | 0.00 | 0.00 | 32 | 1023.5 |
| 20260830160059 | 76 | 0 | 0.0 | 4.0 | 0.00 | 0.00 | 0.00 | 33 | 1023.3 |
| 20260830154604 | 74 | 0 | 0.0 | 3.0 | 0.00 | 0.00 | 0.00 | 35 | 1023.2 |
| 20260830153105 | 73 | 290 | 1.0 | 4.0 | 0.00 | 0.00 | 0.00 | 37 | 1023.2 |
| 20260830151557 | 71 | 0 | 0.0 | 0.0 | 0.00 | 0.00 | 0.00 | 43 | 1023.1 |
| 20260830150106 | 69 | 0 | 0.0 | 2.0 | 0.00 | 0.00 | 0.00 | 46 | 1023.3 |
| 20260830144609 | 68 | 0 | 0.0 | 1.0 | 0.00 | 0.00 | 0.00 | 48 | 1023.2 |
| 20260830143112 | 67 | 0 | 0.0 | 3.0 | 0.00 | 0.00 | 0.00 | 46 | 1023.1 |
| 20260830141556 | 67 | 335 | 0.0 | 4.0 | 0.00 | 0.00 | 0.00 | 45 | 1023.1 |
| 20260830140104 | 67 | 0 | 0.0 | 4.0 | 0.00 | 0.00 | 0.00 | 43 | 1022.8 |
| 20260830134558 | 67 | 0 | 0.0 | 0.0 | 0.00 | 0.00 | 0.00 | 42 | 1023.0 |
| 20260830133138 | 67 | 0 | 0.0 | 3.0 | 0.00 | 0.00 | 0.00 | 39 | 1022.8 |
| 20260830131617 | 67 | 344 | 0.0 | 3.0 | 0.00 | 0.00 | 0.00 | 39 | 1022.7 |
| 20260830124616 | 67 | 0 | 0.0 | 0.0 | 0.00 | 0.00 | 0.00 | 43 | 1022.4 |
| 20260830123107 | 67 | 0 | 0.0 | 3.0 | 0.00 | 0.00 | 0.00 | 43 | 1022.4 |
| 20260830121605 | 66 | 30 | 0.0 | 3.0 | 0.00 | 0.00 | 0.00 | 46 | 1022.3 |
| 20260830120108 | 66 | 0 | 0.0 | 0.0 | 0.00 | 0.00 | 0.00 | 48 | 1022.4 |
| 20260830114627 | 66 | 0 | 0.0 | 0.0 | 0.00 | 0.00 | 0.00 | 49 | 1022.3 |
| 20260830113108 | 66 | 258 | 1.0 | 6.0 | 0.00 | 0.00 | 0.00 | 50 | 1022.2 |
| 20260830111605 | 66 | 0 | 1.0 | 6.0 | 0.00 | 0.00 | 0.00 | 51 | 1022.2 |
| 20260830110106 | 65 | 0 | 0.0 | 7.0 | 0.00 | 0.00 | 0.00 | 54 | 1022.3 |
| 20260830104604 | 66 | 102 | 0.0 | 5.0 | 0.00 | 0.00 | 0.00 | 55 | 1022.3 |
| 20260830103107 | 66 | 0 | 0.0 | 4.0 | 0.00 | 0.00 | 0.00 | 55 | 1022.2 |
| 20260830101559 | 66 | 305 | 1.0 | 6.0 | 0.00 | 0.00 | 0.00 | 55 | 1022.3 |
| 20260830094604 | 67 | 0 | 1.0 | 6.0 | 0.00 | 0.00 | 0.00 | 54 | 1022.0 |
| 20260830093106 | 67 | 279 | 1.0 | 7.0 | 0.00 | 0.00 | 0.00 | 53 | 1022.1 |
| 20260830091601 | 67 | 309 | 1.0 | 8.0 | 0.00 | 0.00 | 0.00 | 51 | 1022.4 |
| 20260830084603 | 68 | 302 | 0.0 | 3.0 | 0.00 | 0.00 | 0.00 | 48 | 1022.4 |
| 20260830083111 | 68 | 290 | 1.0 | 5.0 | 0.00 | 0.00 | 0.00 | 48 | 1022.4 |
| 20260830081603 | 68 | 0 | 0.0 | 4.0 | 0.00 | 0.00 | 0.00 | 47 | 1022.6 |
| 20260830080100 | 68 | 0 | 0.0 | 3.0 | 0.00 | 0.00 | 0.00 | 46 | 1022.6 |
| 20260830074606 | 69 | 290 | 2.0 | 4.0 | 0.00 | 0.00 | 0.00 | 47 | 1022.6 |
| 20260830073102 | 69 | 307 | 1.0 | 4.0 | 0.00 | 0.00 | 0.00 | 46 | 1022.7 |
| 20260830071604 | 69 | 305 | 2.0 | 4.0 | 0.00 | 0.00 | 0.00 | 46 | 1022.9 |
| 20260830070111 | 69 | 294 | 2.0 | 5.0 | 0.00 | 0.00 | 0.00 | 46 | 1023.0 |
| 20260830064558 | 69 | 304 | 2.0 | 4.0 | 0.00 | 0.00 | 0.00 | 46 | 1023.0 |
| 20260830063101 | 68 | 292 | 1.0 | 4.0 | 0.00 | 0.00 | 0.00 | 46 | 1023.0 |
| 20260830061606 | 68 | 0 | 0.0 | 0.0 | 0.00 | 0.00 | 0.00 | 47 | 1023.0 |
| 20260830060106 | 68 | 0 | 0.0 | 0.0 | 0.00 | 0.00 | 0.00 | 48 | 1023.1 |
| 20260830054558 | 68 | 0 | 0.0 | 4.0 | 0.00 | 0.00 | 0.00 | 47 | 1023.2 |
| 20260830053105 | 68 | 313 | 2.0 | 4.0 | 0.00 | 0.00 | 0.00 | 46 | 1023.3 |
| 20260830051557 | 68 | 311 | 2.0 | 4.0 | 0.00 | 0.00 | 0.00 | 46 | 1023.3 |
| 20260830050108 | 69 | 307 | 2.0 | 4.0 | 0.00 | 0.00 | 0.00 | 46 | 1023.5 |
| 20260830044603 | 69 | 305 | 2.0 | 5.0 | 0.00 | 0.00 | 0.00 | 46 | 1023.5 |
| 20260830043102 | 69 | 311 | 2.0 | 5.0 | 0.00 | 0.00 | 0.00 | 46 | 1023.5 |
| 20260830041605 | 69 | 320 | 2.0 | 4.0 | 0.00 | 0.00 | 0.00 | 46 | 1023.4 |
| 20260830040109 | 69 | 0 | 0.0 | 4.0 | 0.00 | 0.00 | 0.00 | 46 | 1023.2 |
| 20260830034627 | 69 | 302 | 1.0 | 4.0 | 0.00 | 0.00 | 0.00 | 46 | 1023.1 |
| 20260830033106 | 69 | 302 | 2.0 | 4.0 | 0.00 | 0.00 | 0.00 | 46 | 1022.9 |
| 20260830031604 | 70 | 286 | 2.0 | 6.0 | 0.00 | 0.00 | 0.00 | 45 | 1022.8 |
| 20260830024606 | 71 | 281 | 3.0 | 8.0 | 0.00 | 0.00 | 0.00 | 46 | 1022.6 |
| 20260830023106 | 72 | 277 | 2.0 | 6.0 | 0.00 | 0.00 | 0.00 | 44 | 1022.6 |
| 20260830021602 | 72 | 0 | 2.0 | 6.0 | 0.00 | 0.00 | 0.00 | 45 | 1022.8 |
| 20260830020105 | 73 | 286 | 2.0 | 6.0 | 0.00 | 0.00 | 0.00 | 44 | 1022.7 |
| 20260830014619 | 74 | 277 | 2.0 | 4.0 | 0.00 | 0.00 | 0.00 | 45 | 1022.9 |
| 20260830013111 | 74 | 0 | 1.0 | 6.0 | 0.00 | 0.00 | 0.00 | 44 | 1022.9 |